This demonstration page uses our WeatherBlox Daily Observations layout. Learn more.

Hourly Observations for January 15, 2019

Temp ( °F °C ) Dew Point ( °F °C ) Humidity (%) Winds ( mph kmh ) Pressure ( in mb ) Visibility ( mi km ) Precip ( " mm )
12:15 am 00:15 Cloudy with Freezing Fog 23 -5.1 21 -6.1 93 93 ENE 3 6 30.33 1027 0.5 0.804672 0 0
12:35 am 00:35 Cloudy with Freezing Fog 23 -4.9 21 -5.9 93 93 E 3 6 30.3 1026 0.5 0.804672 0 0
12:55 am 00:55 Cloudy with Freezing Fog 22 -5.3 20 -6.5 91 91 Calm 30.3 1026 0.25 0.402336 0 0
1:15 am 01:15 Cloudy with Freezing Fog 22 -5.3 20 -6.5 91 91 Calm 30.3 1026 0.5 0.804672 0 0
1:35 am 01:35 Cloudy with Freezing Fog 23 -5.2 21 -6.3 92 92 Calm 30.27 1025 0.25 0.402336 0 0
1:55 am 01:55 Cloudy with Freezing Fog 22 -5.4 20 -6.5 92 92 Calm 30.27 1025 0.25 0.402336 0 0
2:15 am 02:15 Cloudy with Freezing Fog 23 -4.8 21 -5.9 92 92 Calm 30.27 1025 0.25 0.402336 0 0
2:35 am 02:35 Cloudy with Freezing Fog N/A N/A N/A Calm N/A 0.25 0.402336 0 0
2:55 am 02:55 Cloudy with Fog N/A N/A N/A Calm N/A 0.25 0.402336 0 0
3:15 am 03:15 Cloudy with Fog N/A N/A N/A Calm N/A 0.25 0.402336 0 0
3:35 am 03:35 Cloudy with Fog N/A N/A N/A Calm N/A 0.25 0.402336 0 0
3:55 am 03:55 Cloudy with Fog N/A N/A N/A Calm N/A 0.25 0.402336 0 0
4:15 am 04:15 Cloudy with Fog N/A N/A N/A Calm N/A 0.25 0.402336 0 0
4:35 am 04:35 Cloudy with Fog N/A N/A N/A Calm N/A 0.5 0.804672 0 0
4:55 am 04:55 Cloudy with Fog N/A N/A N/A NW 3 6 N/A 0.5 0.804672 0 0
5:15 am 05:15 Cloudy with Fog N/A N/A N/A WNW 3 6 N/A 0.5 0.804672 0 0
5:35 am 05:35 Cloudy with Mist and Fog N/A N/A N/A Calm N/A 1 1.609344 0 0
5:55 am 05:55 Mostly Cloudy with Mist and Fog N/A N/A N/A W 3 6 N/A 3 4.828032 0 0
6:15 am 06:15 Clear N/A N/A N/A W 5 7 N/A 10 16.09344 0 0
6:35 am 06:35 Clear N/A N/A N/A WNW 5 7 N/A 10 16.09344 0 0
6:55 am 06:55 Clear N/A N/A N/A WNW 3 6 N/A 10 16.09344 0 0
7:15 am 07:15 Clear N/A N/A N/A WNW 3 6 N/A 10 16.09344 0 0
7:35 am 07:35 Clear N/A N/A N/A WNW 3 6 N/A 10 16.09344 0 0
7:55 am 07:55 Clear N/A N/A N/A WNW 6 9 N/A 10 16.09344 0 0
8:15 am 08:15 Sunny N/A N/A N/A WNW 5 7 N/A 10 16.09344 0 0
8:35 am 08:35 Sunny N/A N/A N/A WNW 5 7 N/A 10 16.09344 0 0
8:55 am 08:55 Sunny N/A N/A N/A W 5 7 N/A 10 16.09344 0 0
9:15 am 09:15 Sunny N/A N/A N/A W 5 7 N/A 10 16.09344 0 0
9:35 am 09:35 Sunny 26 -3.1 24 -4.3 92 92 WNW 5 7 30.21 1023 10 16.09344 0 0
9:55 am 09:55 Sunny 27 -2.6 25 -4.1 90 90 WNW 5 7 30.21 1023 10 16.09344 0 0
10:15 am 10:15 Sunny 29 -1.6 26 -3.6 86 86 W 6 9 30.18 1022 10 16.09344 0 0
10:35 am 10:35 Sunny 31 -0.5 26 -3.3 82 82 W 5 7 30.18 1022 10 16.09344 0 0
10:55 am 10:55 Sunny 32 0 27 -2.9 81 81 W 6 9 30.18 1022 10 16.09344 0 0
11:15 am 11:15 Sunny 34 1.2 28 -2 79 79 W 7 11 30.18 1022 10 16.09344 0 0
11:35 am 11:35 Sunny 36 2.1 29 -1.6 77 77 NW 5 7 30.15 1021 10 16.09344 0 0
11:55 am 11:55 Sunny 38 3.2 29 -1.4 72 72 W 5 7 30.15 1021 10 16.09344 0 0
12:15 pm 12:15 Sunny 40 4.6 30 -0.9 68 68 W 6 9 30.09 1019 10 16.09344 0 0
12:35 pm 12:35 Sunny 43 6.1 31 -0.5 63 63 WNW 6 9 30.09 1019 10 16.09344 0 0
12:55 pm 12:55 Sunny 45 7.1 30 -1 57 57 W 6 9 30.06 1018 10 16.09344 0 0
1:15 pm 13:15 Sunny 47 8.1 29 -1.7 50 50 WNW 7 11 30.06 1018 10 16.09344 0 0
1:35 pm 13:35 Sunny 47 8.6 29 -1.9 48 48 WNW 7 11 30.06 1018 10 16.09344 0 0
1:55 pm 13:55 Sunny 49 9.3 27 -2.7 43 43 WNW 8 13 30.06 1018 10 16.09344 0 0
2:15 pm 14:15 Sunny 50 10.2 27 -2.7 41 41 NW 12 19 30.06 1018 10 16.09344 0 0
2:35 pm 14:35 Sunny 50 10 25 -4 37 37 NW 15 24 30.06 1018 10 16.09344 0 0
2:55 pm 14:55 Sunny 50 9.8 28 -2.4 43 43 WNW 12 19 30.06 1018 10 16.09344 0 0
3:15 pm 15:15 Sunny 50 9.9 28 -2.3 43 43 WNW 8 13 30.06 1018 10 16.09344 0 0
3:35 pm 15:35 Sunny 50 10 28 -2.3 42 42 WNW 6 9 30.06 1018 10 16.09344 0 0
3:55 pm 15:55 Sunny 50 10 29 -1.7 44 44 WNW 8 13 30.06 1018 10 16.09344 0 0
4:15 pm 16:15 Sunny 49 9.6 29 -1.7 46 46 WNW 7 11 30.06 1018 10 16.09344 0 0
4:35 pm 16:35 Sunny 48 9.1 29 -1.7 47 47 WNW 6 9 30.06 1018 10 16.09344 0 0
4:55 pm 16:55 Sunny 47 8.4 29 -1.7 49 49 NW 5 7 30.06 1018 10 16.09344 0 0
5:15 pm 17:15 Sunny 44 6.6 29 -1.8 55 55 NNW 5 7 30.09 1019 10 16.09344 0 0
5:35 pm 17:35 Sunny 40 4.6 28 -2.3 61 61 N 6 9 30.09 1019 10 16.09344 0 0
5:55 pm 17:55 Clear 40 4.5 28 -2.3 62 62 NNE 6 9 30.09 1019 10 16.09344 0 0
6:15 pm 18:15 Clear 40 4.2 25 -4 56 56 NNE 7 11 30.09 1019 10 16.09344 0 0
6:35 pm 18:35 Clear 37 3 25 -4 60 60 Calm 30.12 1020 10 16.09344 0 0
6:55 pm 18:55 Clear 35 1.5 24 -4.3 66 66 Calm 30.12 1020 10 16.09344 0 0
7:15 pm 19:15 Clear 31 -0.7 24 -4.5 76 76 NNW 5 7 30.18 1022 10 16.09344 0 0
7:35 pm 19:35 Clear 29 -1.4 24 -4.3 81 81 N 6 9 30.18 1022 10 16.09344 0 0
7:55 pm 19:55 Clear 29 -1.9 24 -4.6 82 82 NNW 5 7 30.24 1024 10 16.09344 0 0
8:15 pm 20:15 Clear 30 -1.2 25 -4 82 82 NNE 5 7 30.21 1023 10 16.09344 0 0
8:35 pm 20:35 Clear 31 -0.6 24 -4.5 75 75 N 8 13 30.21 1023 10 16.09344 0 0
8:55 pm 20:55 Clear 29 -1.4 24 -4.6 79 79 NNE 7 11 30.21 1023 10 16.09344 0 0
9:15 pm 21:15 Clear 32 0 24 -4.3 73 73 NNE 7 11 30.21 1023 10 16.09344 0 0
9:35 pm 21:35 Clear 32 0 24 -4.4 73 73 NNE 6 9 30.21 1023 10 16.09344 0 0
9:55 pm 21:55 Clear 30 -1 23 -4.8 76 76 NNE 7 11 30.21 1023 10 16.09344 0 0
10:15 pm 22:15 Clear 30 -1 24 -4.3 79 79 NE 8 13 30.21 1023 10 16.09344 0 0
10:35 pm 22:35 Clear 30 -1.1 24 -4.2 80 80 NE 7 11 30.21 1023 10 16.09344 0 0
10:55 pm 22:55 Clear 28 -2.5 23 -4.9 84 84 NNE 3 6 30.27 1025 10 16.09344 0 0
11:15 pm 23:15 Clear 29 -1.8 24 -4.5 82 82 N 3 6 30.27 1025 10 16.09344 0 0
11:35 pm 23:35 Clear 28 -2 24 -4.3 84 84 NE 7 11 30.27 1025 10 16.09344 0 0
11:55 pm 23:55 Clear 29 -1.9 25 -4 86 86 NE 7 11 30.27 1025 10 16.09344 0 0

Powered by AerisWeather